sat.trackr.live / text

‹ back to catalog

STARLINK-30956

NORAD 58481 · 2023-186J

PAYLOAD ACTIVE UNKNOWN

§ Identity

Operator
Country
US
Launch date
2023-12-03
Launch site
AFETR
Launch vehicle
Mass (kg)
RCS (m²)

Purposes: comms

External: N2YO · Heavens-Above · Gunter

§ Orbital elements

Epoch: 2026-05-25T04:49:56.707392Z

Period
94.27 min
Inclination
43.0013°
Eccentricity
0.0001328
Mean motion
15.27584846 rev/d
Perigee alt
482.1 km
Apogee alt
483.9 km
Semi-major
6,861.2 km
B*
6.5017e-5
RAAN
329.1810°
Arg perigee
276.2195°
Mean anomaly
83.8506°
Rev number
13,785

§ Raw data

STARLINK-309561 58481U 23186J   26145.20135078  .00001528  00000+0  65017-4 0  99982 58481  43.0013 329.1810 0001328 276.2195  83.8506 15.27584846137853

JSON: /api/v1/satellites/58481 · /tle

For live sub-satellite position, see the globe view (requires WebGL).

§ Visibility from observer

Set your observer location to see the next 7 days of passes ≥ 10°. The values pass through the URL so the page stays shareable.

No JS? Fill the form by hand. The geolocation button needs JavaScript.